QPF
0.00 0.00 0.00 0.00 0.00 0.00 0.00 0.00 0.00 0.00 0.02 0.02 0.01 0.00 0.00 0.00 0.00 0.00 0.00 0.01 0.01 0.00 0.00 0.00 0.00 0.00 0.00 0.00 0.00 0.00 0.00 0.00 0.00 0.00 0.00 0.00 0.00 0.00 0.00 0.00 0.01 0.03 0.02 0.01
0.00 0.00 0.00 0.00 0.00 0.00 0.00 0.00 0.00 0.01 0.03 0.03 0.01 0.00 0.00 0.00 0.00 0.01 0.01 0.00 0.00 0.00 0.00 0.00 0.00 0.00 0.00 0.00 0.00 0.01 0.01 0.01 0.01 0.00 0.01 0.01 0.00 0.01 0.00 0.00 0.01 0.01 0.01 0.02
0.00 0.00 0.00 0.00 0.00 0.00 0.00 0.00 0.00 0.01 0.02 0.01 0.00 0.00 0.00 0.00 0.00 0.00 0.00 0.00 0.00 0.00 0.00 0.00 0.00 0.00 0.00 0.00 0.01 0.01 0.01 0.01 0.01 0.01 0.00 0.00 0.00 0.00 0.00 0.00 0.01 0.01 0.01 0.01
0.00 0.00 0.01 0.01 0.01 0.02 0.02 0.00 0.00 0.01 0.02 0.01 0.00 0.00 0.00 0.01 0.00 0.00 0.01 0.01 0.01 0.00 0.00 0.00 0.00 0.00 0.00 0.00 0.00 0.01 0.01 0.01 0.01 0.00 0.00 0.00 0.00 0.00 0.00 0.01 0.01 0.01 0.01 0.01
0.00 0.00 0.00 0.01 0.01 0.01 0.01 0.00 0.00 0.00 0.01 0.01 0.00 0.00 0.02 0.03 0.01 0.01 0.01 0.01 0.01 0.00 0.00 0.00 0.00 0.00 0.00 0.00 0.01 0.01 0.01 0.01 0.01 0.00 0.00 0.00 0.01 0.00 0.00 0.01 0.01 0.00 0.00 0.01
0.00 0.00 0.00 0.01 0.00 0.00 0.00 0.01 0.00 0.00 0.00 0.00 0.01 0.01 0.03 0.01 0.01 0.01 0.01 0.01 0.01 0.00 0.01 0.01 0.01 0.01 0.01 0.01 0.02 0.01 0.01 0.01 0.01 0.01 0.02 0.02 0.01 0.01 0.01 0.00 0.00 0.00 0.00 0.01
0.00 0.00 0.01 0.02 0.01 0.00 0.01 0.01 0.00 0.00 0.00 0.00 0.00 0.01 0.01 0.01 0.00 0.00 0.00 0.00 0.01 0.01 0.01 0.02 0.03 0.03 0.02 0.02 0.02 0.01 0.01 0.01 0.01 0.02 0.03 0.03 0.02 0.01 0.01 0.01 0.00 0.00 0.01 0.01
0.01 0.01 0.02 0.02 0.01 0.01 0.01 0.00 0.00 0.00 0.00 0.00 0.01 0.00 0.00 0.00 0.00 0.00 0.00 0.00 0.01 0.01 0.02 0.02 0.02 0.02 0.03 0.03 0.03 0.03 0.03 0.03 0.03 0.03 0.02 0.02 0.03 0.03 0.02 0.02 0.02 0.01 0.01 0.02
0.01 0.01 0.01 0.00 0.00 0.02 0.01 0.00 0.00 0.00 0.00 0.00 0.01 0.01 0.00 0.00 0.00 0.00 0.01 0.01 0.01 0.02 0.02 0.02 0.02 0.02 0.02 0.02 0.03 0.03 0.02 0.02 0.02 0.04 0.04 0.05 0.06 0.05 0.04 0.03 0.03 0.03 0.03 0.03
0.00 0.00 0.00 0.00 0.00 0.02 0.01 0.00 0.00 0.00 0.00 0.00 0.01 0.01 0.01 0.01 0.01 0.01 0.01 0.02 0.02 0.02 0.02 0.03 0.02 0.02 0.02 0.02 0.02 0.03 0.03 0.03 0.04 0.05 0.05 0.06 0.06 0.06 0.05 0.04 0.05 0.04 0.03 0.03
0.01 0.00 0.00 0.00 0.00 0.00 0.00 0.00 0.01 0.01 0.00 0.00 0.01 0.01 0.01 0.01 0.02 0.02 0.02 0.03 0.03 0.03 0.03 0.03 0.03 0.03 0.03 0.03 0.03 0.03 0.03 0.03 0.04 0.05 0.05 0.05 0.05 0.06 0.07 0.07 0.07 0.05 0.03 0.02
0.02 0.01 0.01 0.01 0.00 0.01 0.01 0.01 0.01 0.01 0.01 0.01 0.01 0.02 0.02 0.02 0.02 0.02 0.02 0.03 0.03 0.04 0.05 0.06 0.07 0.07 0.05 0.05 0.05 0.04 0.03 0.03 0.04 0.05 0.06 0.07 0.09 0.10 0.09 0.06 0.05 0.03 0.02 0.02
0.04 0.04 0.04 0.02 0.01 0.02 0.04 0.04 0.04 0.03 0.02 0.02 0.02 0.03 0.03 0.02 0.02 0.02 0.02 0.02 0.02 0.03 0.04 0.04 0.06 0.06 0.06 0.05 0.04 0.04 0.04 0.04 0.05 0.06 0.07 0.08 0.07 0.05 0.04 0.02 0.02 0.01 0.01 0.01
0.06 0.06 0.08 0.06 0.05 0.03 0.02 0.03 0.03 0.02 0.02 0.03 0.04 0.04 0.03 0.03 0.03 0.03 0.03 0.02 0.02 0.03 0.03 0.03 0.04 0.04 0.04 0.04 0.04 0.05 0.05 0.06 0.06 0.05 0.04 0.03 0.03 0.02 0.02 0.02 0.02 0.01 0.01 0.01
0.03 0.04 0.05 0.06 0.04 0.02 0.02 0.02 0.02 0.03 0.03 0.04 0.07 0.07 0.07 0.06 0.05 0.04 0.03 0.03 0.02 0.03 0.03 0.03 0.03 0.03 0.03 0.04 0.04 0.04 0.04 0.04 0.04 0.03 0.02 0.02 0.02 0.02 0.02 0.01 0.01 0.02 0.01 0.01
0.02 0.02 0.04 0.03 0.01 0.01 0.01 0.01 0.02 0.03 0.05 0.06 0.09 0.09 0.08 0.08 0.06 0.05 0.05 0.04 0.02 0.02 0.03 0.03 0.03 0.03 0.03 0.03 0.04 0.03 0.03 0.03 0.02 0.01 0.01 0.01 0.01 0.01 0.01 0.01 0.02 0.01 0.01 0.02
0.04 0.04 0.05 0.03 0.01 0.02 0.02 0.02 0.02 0.04 0.05 0.05 0.06 0.06 0.07 0.08 0.07 0.06 0.06 0.05 0.04 0.04 0.04 0.04 0.04 0.05 0.05 0.04 0.04 0.03 0.03 0.03 0.02 0.01 0.01 0.01 0.01 0.01 0.01 0.01 0.01 0.01 0.01 0.02
0.02 0.04 0.07 0.05 0.04 0.03 0.02 0.02 0.03 0.03 0.04 0.04 0.05 0.06 0.07 0.07 0.06 0.05 0.05 0.05 0.05 0.04 0.04 0.04 0.05 0.05 0.05 0.05 0.05 0.05 0.05 0.03 0.03 0.02 0.01 0.01 0.01 0.01 0.01 0.01 0.01 0.01 0.01 0.02
0.03 0.06 0.10 0.10 0.06 0.04 0.04 0.04 0.04 0.04 0.04 0.04 0.04 0.06 0.07 0.08 0.07 0.06 0.04 0.04 0.04 0.03 0.04 0.04 0.04 0.04 0.03 0.03 0.03 0.04 0.04 0.03 0.02 0.02 0.02 0.02 0.02 0.01 0.01 0.02 0.01 0.01 0.01 0.02
0.05 0.09 0.10 0.11 0.08 0.07 0.06 0.07 0.08 0.07 0.07 0.06 0.05 0.05 0.05 0.05 0.05 0.05 0.05 0.05 0.05 0.04 0.03 0.03 0.04 0.04 0.03 0.02 0.01 0.01 0.02 0.02 0.02 0.02 0.02 0.01 0.01 0.01 0.01 0.02 0.01 0.01 0.01 0.02
0.05 0.09 0.09 0.09 0.07 0.06 0.05 0.07 0.08 0.07 0.07 0.07 0.08 0.07 0.05 0.04 0.04 0.05 0.05 0.06 0.06 0.05 0.03 0.03 0.03 0.03 0.03 0.02 0.02 0.01 0.01 0.01 0.01 0.01 0.01 0.01 0.01 0.01 0.01 0.01 0.01 0.02 0.02 0.03
0.07 0.07 0.06 0.05 0.05 0.04 0.04 0.08 0.08 0.07 0.06 0.07 0.08 0.08 0.07 0.06 0.05 0.05 0.06 0.07 0.06 0.05 0.04 0.03 0.02 0.02 0.03 0.02 0.02 0.01 0.01 0.01 0.01 0.01 0.02 0.02 0.01 0.01 0.01 0.02 0.02 0.02 0.02 0.02
0.12 0.09 0.06 0.06 0.05 0.05 0.04 0.07 0.08 0.06 0.06 0.07 0.06 0.07 0.07 0.08 0.06 0.05 0.05 0.07 0.08 0.06 0.04 0.02 0.02 0.02 0.02 0.02 0.02 0.02 0.02 0.02 0.02 0.02 0.02 0.02 0.02 0.02 0.02 0.03 0.04 0.04 0.03 0.03
0.10 0.10 0.08 0.10 0.08 0.08 0.07 0.06 0.06 0.07 0.08 0.11 0.09 0.07 0.07 0.07 0.06 0.04 0.04 0.05 0.05 0.07 0.04 0.03 0.02 0.01 0.01 0.01 0.02 0.02 0.02 0.02 0.02 0.02 0.02 0.02 0.02 0.02 0.02 0.03 0.03 0.03 0.04 0.05
0.08 0.09 0.07 0.12 0.13 0.12 0.13 0.09 0.08 0.11 0.11 0.09 0.07 0.07 0.06 0.05 0.05 0.05 0.04 0.03 0.03 0.05 0.04 0.03 0.02 0.01 0.01 0.01 0.02 0.02 0.02 0.02 0.02 0.02 0.03 0.02 0.02 0.02 0.03 0.04 0.04 0.04 0.04 0.05
0.09 0.09 0.06 0.11 0.16 0.16 0.18 0.13 0.08 0.12 0.16 0.12 0.07 0.05 0.04 0.04 0.04 0.04 0.04 0.03 0.03 0.04 0.03 0.03 0.02 0.02 0.02 0.03 0.03 0.03 0.03 0.03 0.02 0.02 0.03 0.04 0.03 0.03 0.04 0.05 0.05 0.05 0.06 0.05
0.07 0.07 0.06 0.07 0.12 0.16 0.19 0.16 0.10 0.10 0.12 0.11 0.06 0.03 0.02 0.03 0.03 0.03 0.04 0.04 0.05 0.04 0.05 0.05 0.04 0.02 0.02 0.03 0.03 0.03 0.03 0.04 0.04 0.03 0.03 0.04 0.05 0.05 0.05 0.05 0.05 0.06 0.05 0.04
MSLP
1012.19 1011.89 1011.61 1011.43 1011.37 1011.45 1011.64 1011.90 1012.18 1012.42 1012.59 1012.65 1012.62 1012.51 1012.33 1012.11 1011.88 1011.64 1011.39 1011.13 1010.85 1010.54 1010.21 1009.89 1009.59 1009.36 1009.21 1009.19 1009.28 1009.49 1009.78 1010.12 1010.47 1010.80 1011.08 1011.28 1011.43 1011.52 1011.58 1011.63 1011.69 1011.77 1011.88 1012.01
1012.86 1012.50 1012.12 1011.79 1011.58 1011.50 1011.57 1011.74 1012.00 1012.29 1012.55 1012.77 1012.91 1012.97 1012.95 1012.84 1012.67 1012.44 1012.16 1011.83 1011.45 1011.04 1010.61 1010.19 1009.81 1009.49 1009.26 1009.13 1009.13 1009.23 1009.41 1009.66 1009.95 1010.23 1010.50 1010.74 1010.94 1011.10 1011.25 1011.38 1011.51 1011.64 1011.77 1011.91
1013.53 1013.14 1012.70 1012.28 1011.96 1011.78 1011.74 1011.86 1012.09 1012.39 1012.73 1013.04 1013.30 1013.47 1013.54 1013.51 1013.38 1013.15 1012.84 1012.45 1012.00 1011.52 1011.02 1010.53 1010.07 1009.66 1009.33 1009.10 1008.97 1008.94 1008.99 1009.13 1009.31 1009.54 1009.78 1010.03 1010.29 1010.53 1010.77 1010.99 1011.21 1011.41 1011.59 1011.75
1014.18 1013.80 1013.35 1012.90 1012.53 1012.29 1012.20 1012.26 1012.46 1012.76 1013.11 1013.46 1013.77 1013.99 1014.10 1014.09 1013.96 1013.71 1013.37 1012.94 1012.44 1011.91 1011.35 1010.80 1010.27 1009.79 1009.36 1009.01 1008.74 1008.56 1008.47 1008.46 1008.54 1008.69 1008.90 1009.16 1009.47 1009.79 1010.13 1010.46 1010.78 1011.06 1011.31 1011.51
1014.79 1014.46 1014.05 1013.62 1013.26 1013.00 1012.88 1012.91 1013.07 1013.34 1013.66 1013.99 1014.28 1014.48 1014.57 1014.54 1014.38 1014.10 1013.71 1013.24 1012.71 1012.14 1011.55 1010.96 1010.37 1009.81 1009.29 1008.82 1008.41 1008.08 1007.83 1007.69 1007.65 1007.72 1007.90 1008.17 1008.53 1008.94 1009.38 1009.83 1010.25 1010.63 1010.95 1011.20
1015.33 1015.08 1014.74 1014.39 1014.07 1013.83 1013.71 1013.71 1013.83 1014.04 1014.30 1014.56 1014.78 1014.91 1014.93 1014.83 1014.61 1014.27 1013.85 1013.34 1012.79 1012.20 1011.59 1010.97 1010.34 1009.72 1009.11 1008.53 1008.00 1007.52 1007.14 1006.87 1006.73 1006.73 1006.88 1007.17 1007.58 1008.07 1008.61 1009.17 1009.70 1010.17 1010.56 1010.87
1015.78 1015.63 1015.40 1015.14 1014.89 1014.69 1014.58 1014.56 1014.62 1014.75 1014.92 1015.07 1015.17 1015.19 1015.11 1014.93 1014.63 1014.24 1013.77 1013.24 1012.67 1012.08 1011.47 1010.83 1010.18 1009.52 1008.85 1008.19 1007.55 1006.97 1006.48 1006.11 1005.89 1005.84 1005.98 1006.28 1006.74 1007.31 1007.94 1008.59 1009.21 1009.76 1010.21 1010.56
1016.17 1016.12 1016.00 1015.83 1015.65 1015.50 1015.39 1015.33 1015.33 1015.36 1015.40 1015.42 1015.39 1015.28 1015.08 1014.79 1014.42 1013.97 1013.47 1012.94 1012.37 1011.79 1011.20 1010.58 1009.93 1009.26 1008.56 1007.85 1007.16 1006.51 1005.95 1005.52 1005.25 1005.18 1005.30 1005.64 1006.13 1006.76 1007.46 1008.18 1008.86 1009.46 1009.95 1010.32
1016.52 1016.57 1016.54 1016.46 1016.33 1016.20 1016.07 1015.96 1015.86 1015.77 1015.67 1015.54 1015.36 1015.11 1014.79 1014.40 1013.96 1013.47 1012.96 1012.43 1011.90 1011.36 1010.81 1010.23 1009.62 1008.98 1008.29 1007.58 1006.87 1006.21 1005.62 1005.17 1004.89 1004.81 1004.95 1005.30 1005.83 1006.49 1007.22 1007.98 1008.69 1009.31 1009.80 1010.17
1016.89 1017.02 1017.05 1017.01 1016.91 1016.76 1016.59 1016.39 1016.18 1015.95 1015.69 1015.39 1015.05 1014.66 1014.23 1013.76 1013.26 1012.75 1012.24 1011.75 1011.27 1010.79 1010.31 1009.81 1009.27 1008.69 1008.06 1007.39 1006.72 1006.09 1005.53 1005.09 1004.83 1004.76 1004.91 1005.27 1005.81 1006.48 1007.22 1007.98 1008.68 1009.29 1009.76 1010.10
1017.33 1017.49 1017.56 1017.53 1017.41 1017.21 1016.94 1016.63 1016.27 1015.87 1015.44 1014.98 1014.48 1013.96 1013.42 1012.87 1012.34 1011.82 1011.34 1010.90 1010.49 1010.10 1009.71 1009.31 1008.87 1008.38 1007.84 1007.27 1006.68 1006.11 1005.61 1005.22 1005.00 1004.96 1005.12 1005.49 1006.02 1006.67 1007.39 1008.10 1008.78 1009.35 1009.79 1010.09
1017.86 1018.03 1018.09 1018.02 1017.84 1017.54 1017.16 1016.70 1016.18 1015.60 1014.99 1014.36 1013.71 1013.06 1012.42 1011.82 1011.26 1010.75 1010.30 1009.92 1009.58 1009.29 1009.01 1008.71 1008.39 1008.02 1007.60 1007.14 1006.65 1006.18 1005.77 1005.46 1005.28 1005.28 1005.46 1005.81 1006.31 1006.93 1007.60 1008.27 1008.89 1009.42 1009.82 1010.09
1018.46 1018.61 1018.62 1018.49 1018.22 1017.81 1017.29 1016.66 1015.97 1015.22 1014.44 1013.64 1012.85 1012.08 1011.36 1010.70 1010.12 1009.62 1009.20 1008.87 1008.61 1008.40 1008.21 1008.03 1007.82 1007.57 1007.27 1006.93 1006.56 1006.21 1005.89 1005.66 1005.54 1005.57 1005.76 1006.10 1006.58 1007.15 1007.76 1008.38 1008.95 1009.44 1009.82 1010.08
1019.07 1019.18 1019.13 1018.92 1018.54 1018.02 1017.35 1016.58 1015.73 1014.82 1013.88 1012.94 1012.03 1011.16 1010.36 1009.65 1009.04 1008.54 1008.14 1007.84 1007.63 1007.49 1007.38 1007.28 1007.16 1007.02 1006.83 1006.60 1006.35 1006.10 1005.88 1005.73 1005.68 1005.75 1005.95 1006.28 1006.73 1007.26 1007.83 1008.40 1008.93 1009.40 1009.78 1010.06
1019.61 1019.67 1019.55 1019.26 1018.79 1018.16 1017.38 1016.49 1015.51 1014.48 1013.42 1012.37 1011.36 1010.42 1009.56 1008.80 1008.16 1007.64 1007.24 1006.95 1006.76 1006.64 1006.57 1006.52 1006.46 1006.39 1006.29 1006.15 1006.00 1005.85 1005.73 1005.66 1005.66 1005.77 1005.99 1006.33 1006.75 1007.25 1007.79 1008.34 1008.86 1009.33 1009.73 1010.06
1019.99 1019.99 1019.82 1019.47 1018.94 1018.23 1017.38 1016.42 1015.37 1014.26 1013.14 1012.03 1010.96 1009.97 1009.07 1008.27 1007.60 1007.05 1006.62 1006.31 1006.10 1005.97 1005.89 1005.85 1005.82 1005.78 1005.73 1005.66 1005.59 1005.51 1005.47 1005.47 1005.54 1005.70 1005.95 1006.29 1006.72 1007.20 1007.73 1008.27 1008.80 1009.29 1009.73 1010.12
1020.13 1020.09 1019.87 1019.49 1018.93 1018.20 1017.34 1016.36 1015.30 1014.18 1013.06 1011.94 1010.86 1009.86 1008.94 1008.13 1007.43 1006.84 1006.38 1006.02 1005.76 1005.58 1005.46 1005.39 1005.34 1005.30 1005.27 1005.24 1005.22 1005.21 1005.23 1005.30 1005.43 1005.63 1005.92 1006.28 1006.72 1007.21 1007.74 1008.29 1008.83 1009.35 1009.84 1010.28
1019.99 1019.91 1019.69 1019.30 1018.75 1018.05 1017.22 1016.29 1015.29 1014.23 1013.16 1012.09 1011.06 1010.09 1009.19 1008.38 1007.67 1007.06 1006.54 1006.13 1005.81 1005.56 1005.37 1005.24 1005.15 1005.08 1005.04 1005.02 1005.03 1005.06 1005.13 1005.26 1005.44 1005.70 1006.02 1006.41 1006.87 1007.37 1007.91 1008.47 1009.02 1009.56 1010.08 1010.56
1019.59 1019.49 1019.26 1018.89 1018.39 1017.76 1017.02 1016.18 1015.28 1014.34 1013.38 1012.42 1011.48 1010.58 1009.74 1008.97 1008.27 1007.64 1007.10 1006.63 1006.24 1005.93 1005.67 1005.47 1005.32 1005.21 1005.14 1005.11 1005.13 1005.19 1005.30 1005.47 1005.70 1005.99 1006.35 1006.77 1007.23 1007.74 1008.28 1008.83 1009.38 1009.92 1010.44 1010.93
1018.98 1018.86 1018.63 1018.30 1017.86 1017.32 1016.69 1015.99 1015.23 1014.43 1013.62 1012.80 1011.99 1011.20 1010.45 1009.74 1009.08 1008.47 1007.92 1007.43 1006.99 1006.62 1006.30 1006.04 1005.83 1005.68 1005.58 1005.54 1005.56 1005.63 1005.76 1005.96 1006.22 1006.54 1006.91 1007.34 1007.80 1008.30 1008.82 1009.34 1009.86 1010.37 1010.85 1011.32
1018.26 1018.11 1017.90 1017.60 1017.22 1016.77 1016.25 1015.68 1015.07 1014.43 1013.77 1013.11 1012.44 1011.79 1011.15 1010.53 1009.94 1009.38 1008.85 1008.36 1007.91 1007.51 1007.15 1006.85 1006.61 1006.42 1006.30 1006.24 1006.25 1006.33 1006.47 1006.67 1006.94 1007.26 1007.63 1008.05 1008.49 1008.95 1009.42 1009.90 1010.36 1010.80 1011.22 1011.62
1017.51 1017.34 1017.12 1016.85 1016.52 1016.14 1015.72 1015.27 1014.78 1014.28 1013.77 1013.25 1012.73 1012.21 1011.69 1011.18 1010.68 1010.18 1009.71 1009.25 1008.82 1008.42 1008.07 1007.75 1007.50 1007.30 1007.16 1007.09 1007.09 1007.16 1007.30 1007.49 1007.75 1008.05 1008.39 1008.77 1009.16 1009.57 1009.97 1010.37 1010.75 1011.11 1011.46 1011.78
1016.83 1016.63 1016.40 1016.13 1015.82 1015.49 1015.13 1014.76 1014.37 1013.98 1013.58 1013.18 1012.77 1012.37 1011.96 1011.55 1011.14 1010.73 1010.33 1009.93 1009.55 1009.19 1008.86 1008.57 1008.32 1008.13 1008.00 1007.93 1007.92 1007.98 1008.09 1008.27 1008.49 1008.75 1009.05 1009.36 1009.69 1010.02 1010.35 1010.66 1010.95 1011.23 1011.49 1011.73
1016.27 1016.04 1015.78 1015.50 1015.20 1014.88 1014.55 1014.22 1013.88 1013.54 1013.21 1012.89 1012.56 1012.24 1011.92 1011.60 1011.28 1010.95 1010.62 1010.30 1009.99 1009.69 1009.41 1009.16 1008.95 1008.78 1008.66 1008.60 1008.59 1008.63 1008.72 1008.86 1009.04 1009.25 1009.49 1009.74 1009.99 1010.24 1010.48 1010.71 1010.93 1011.13 1011.32 1011.50
1015.88 1015.62 1015.33 1015.03 1014.71 1014.37 1014.04 1013.70 1013.37 1013.06 1012.75 1012.45 1012.16 1011.89 1011.62 1011.35 1011.10 1010.84 1010.58 1010.33 1010.09 1009.86 1009.65 1009.46 1009.29 1009.16 1009.06 1009.01 1009.00 1009.03 1009.09 1009.20 1009.33 1009.49 1009.66 1009.85 1010.03 1010.22 1010.39 1010.56 1010.72 1010.86 1011.01 1011.15
1015.63 1015.36 1015.05 1014.72 1014.38 1014.02 1013.66 1013.29 1012.94 1012.60 1012.27 1011.97 1011.68 1011.41 1011.15 1010.91 1010.69 1010.47 1010.27 1010.08 1009.90 1009.74 1009.59 1009.45 1009.34 1009.25 1009.18 1009.15 1009.14 1009.16 1009.20 1009.28 1009.37 1009.49 1009.61 1009.74 1009.88 1010.02 1010.15 1010.28 1010.40 1010.53 1010.65 1010.78
1015.52 1015.24 1014.93 1014.58 1014.22 1013.83 1013.44 1013.04 1012.65 1012.27 1011.90 1011.55 1011.23 1010.94 1010.66 1010.42 1010.20 1010.00 1009.83 1009.67 1009.54 1009.42 1009.32 1009.23 1009.16 1009.11 1009.07 1009.05 1009.05 1009.07 1009.11 1009.16 1009.23 1009.32 1009.42 1009.52 1009.63 1009.75 1009.87 1009.99 1010.11 1010.24 1010.37 1010.52
Thickness
5811 5824 5829 5828 5829 5834 5830 5830 5818 5820 5822 5830 5837 5843 5847 5850 5849 5847 5843 5842 5840 5839 5837 5835 5832 5829 5825 5821 5817 5812 5805 5799 5794 5790 5786 5782 5777 5773 5770 5766 5762 5758 5754 5751
5796 5812 5818 5819 5825 5828 5830 5830 5828 5825 5823 5840 5843 5847 5843 5843 5841 5836 5835 5836 5837 5836 5834 5831 5829 5826 5823 5819 5816 5811 5804 5799 5795 5790 5784 5779 5775 5771 5767 5762 5759 5755 5750 5747
5778 5797 5801 5795 5814 5820 5823 5830 5826 5814 5821 5836 5833 5832 5831 5833 5832 5830 5832 5833 5832 5832 5830 5829 5828 5826 5820 5818 5815 5809 5803 5798 5793 5788 5782 5777 5774 5768 5763 5759 5755 5750 5747 5742
5772 5775 5759 5795 5827 5826 5820 5823 5826 5823 5825 5827 5828 5828 5830 5831 5828 5826 5827 5828 5829 5829 5829 5829 5828 5824 5820 5816 5811 5806 5800 5796 5791 5786 5780 5775 5770 5765 5760 5756 5751 5747 5742 5738
5762 5760 5768 5794 5812 5814 5807 5804 5817 5815 5817 5822 5826 5822 5818 5824 5824 5822 5823 5824 5826 5828 5827 5825 5823 5821 5815 5810 5806 5801 5796 5792 5788 5783 5777 5771 5766 5761 5757 5752 5747 5743 5738 5734
5754 5747 5748 5776 5806 5819 5808 5785 5805 5809 5807 5810 5809 5795 5797 5813 5816 5817 5818 5820 5820 5822 5822 5818 5817 5815 5808 5803 5799 5795 5792 5789 5785 5780 5774 5768 5763 5758 5754 5749 5743 5739 5734 5730
5744 5742 5755 5781 5800 5803 5770 5768 5795 5799 5798 5798 5793 5792 5799 5806 5808 5809 5810 5812 5814 5813 5811 5811 5810 5806 5799 5796 5793 5792 5789 5785 5780 5775 5770 5764 5758 5753 5748 5744 5739 5734 5729 5724
5739 5732 5739 5776 5781 5769 5766 5784 5787 5788 5789 5787 5788 5792 5794 5795 5795 5798 5799 5802 5803 5801 5800 5802 5802 5797 5791 5788 5788 5786 5782 5777 5772 5768 5764 5759 5752 5747 5742 5737 5732 5727 5723 5718
5739 5739 5754 5766 5766 5771 5776 5774 5776 5777 5779 5779 5779 5780 5782 5783 5784 5787 5789 5791 5793 5791 5790 5791 5791 5788 5782 5781 5780 5777 5772 5768 5764 5760 5756 5752 5746 5740 5736 5731 5726 5722 5717 5713
5735 5740 5748 5755 5760 5763 5765 5765 5769 5771 5771 5771 5768 5770 5771 5772 5773 5776 5779 5781 5782 5781 5778 5777 5778 5777 5775 5774 5772 5767 5762 5758 5755 5751 5747 5743 5739 5734 5729 5724 5721 5716 5712 5707
5725 5731 5738 5742 5746 5751 5754 5757 5757 5758 5760 5760 5760 5760 5761 5761 5763 5766 5769 5771 5771 5770 5768 5767 5768 5767 5767 5765 5761 5756 5752 5749 5746 5742 5738 5734 5729 5725 5721 5717 5714 5710 5706 5702
5709 5719 5721 5726 5736 5740 5739 5742 5744 5745 5747 5750 5751 5750 5751 5752 5755 5757 5758 5760 5760 5759 5759 5758 5758 5757 5756 5754 5751 5746 5742 5740 5737 5734 5731 5726 5721 5716 5711 5708 5705 5701 5698 5694
5707 5715 5717 5722 5726 5730 5730 5733 5735 5735 5736 5737 5739 5741 5741 5742 5745 5747 5748 5749 5749 5749 5749 5749 5748 5746 5745 5744 5741 5737 5734 5732 5728 5725 5722 5719 5714 5709 5703 5697 5694 5691 5688 5684
5699 5703 5703 5708 5711 5718 5721 5723 5724 5725 5727 5728 5729 5730 5731 5732 5734 5735 5736 5738 5739 5739 5738 5738 5737 5735 5735 5733 5730 5728 5726 5722 5719 5716 5714 5711 5708 5703 5699 5694 5688 5684 5678 5674
5688 5691 5692 5697 5700 5704 5709 5711 5710 5711 5713 5715 5717 5718 5719 5720 5721 5723 5726 5728 5728 5727 5726 5726 5725 5723 5724 5723 5720 5717 5716 5712 5710 5707 5705 5703 5700 5696 5692 5688 5683 5678 5673 5666
5678 5682 5684 5684 5687 5691 5695 5697 5697 5698 5700 5702 5704 5706 5708 5710 5711 5713 5715 5716 5715 5713 5714 5713 5712 5712 5713 5712 5710 5707 5706 5704 5701 5699 5698 5695 5691 5688 5684 5679 5675 5670 5666 5661
5663 5665 5669 5672 5676 5680 5683 5686 5687 5689 5691 5692 5694 5696 5698 5699 5699 5700 5702 5705 5705 5704 5704 5703 5702 5703 5703 5701 5700 5699 5697 5694 5691 5690 5689 5686 5683 5679 5676 5672 5667 5663 5659 5655
5659 5661 5662 5665 5668 5671 5674 5677 5679 5680 5681 5684 5686 5686 5686 5688 5688 5689 5691 5693 5692 5692 5693 5694 5693 5693 5692 5692 5690 5689 5687 5685 5683 5680 5678 5676 5673 5671 5668 5664 5660 5656 5651 5647
5653 5653 5654 5657 5661 5664 5665 5667 5668 5670 5672 5674 5675 5675 5676 5678 5679 5681 5682 5681 5680 5679 5682 5685 5683 5684 5683 5682 5681 5680 5679 5676 5673 5671 5669 5665 5663 5661 5658 5655 5651 5648 5645 5641
5644 5645 5648 5650 5653 5654 5656 5658 5660 5661 5663 5664 5665 5665 5665 5667 5670 5671 5671 5671 5673 5674 5676 5675 5674 5674 5673 5673 5671 5672 5671 5669 5666 5663 5660 5658 5655 5652 5649 5647 5644 5640 5637 5634
5634 5636 5639 5641 5644 5646 5649 5650 5651 5652 5654 5656 5655 5655 5656 5658 5660 5660 5660 5661 5665 5667 5667 5665 5666 5665 5665 5664 5662 5664 5663 5661 5659 5656 5653 5650 5647 5645 5642 5640 5637 5634 5631 5627
5625 5627 5629 5632 5634 5637 5640 5642 5643 5644 5646 5647 5648 5649 5649 5650 5651 5652 5653 5654 5656 5656 5658 5658 5658 5656 5655 5655 5656 5656 5655 5653 5651 5648 5645 5643 5640 5638 5635 5632 5629 5626 5623 5620
5616 5618 5620 5622 5624 5627 5631 5633 5635 5637 5638 5639 5640 5641 5643 5643 5644 5644 5644 5648 5650 5648 5649 5650 5648 5646 5644 5646 5647 5647 5646 5644 5642 5639 5636 5634 5633 5630 5627 5624 5621 5619 5615 5612
5609 5610 5612 5615 5617 5619 5621 5625 5627 5629 5632 5633 5634 5636 5637 5637 5638 5640 5641 5640 5641 5640 5641 5639 5638 5637 5636 5639 5638 5638 5637 5635 5634 5632 5629 5627 5625 5623 5620 5617 5614 5611 5608 5605
5605 5605 5606 5607 5609 5612 5615 5619 5621 5622 5624 5626 5629 5630 5632 5633 5633 5634 5635 5634 5632 5632 5632 5631 5629 5628 5629 5631 5630 5629 5628 5627 5626 5624 5622 5619 5617 5615 5612 5609 5606 5603 5600 5597
5600 5600 5602 5603 5605 5607 5611 5614 5614 5617 5617 5618 5621 5623 5625 5627 5628 5628 5628 5628 5627 5625 5625 5625 5623 5621 5623 5623 5622 5621 5620 5619 5617 5615 5613 5611 5608 5605 5602 5600 5596 5594 5591 5589
5599 5598 5599 5600 5603 5605 5607 5608 5609 5610 5611 5612 5613 5616 5619 5621 5621 5621 5621 5621 5620 5620 5619 5618 5618 5617 5617 5616 5615 5614 5613 5612 5609 5606 5603 5601 5598 5595 5593 5590 5588 5585 5583 5580